TimeEDT,TemperatureF,Dew PointF,Humidity,Sea Level PressureIn,VisibilityMPH,Wind Direction,Wind SpeedMPH,Gust SpeedMPH,PrecipitationIn,Events,Conditions,WindDirDegrees,DateUTC
12:56 AM,59.0,52.9,80,30.16,10.0,SSW,3.5,-,N/A,,Clear,200,2012-10-05 04:56:00
1:56 AM,59.0,52.9,80,30.16,10.0,SSW,4.6,-,N/A,,Clear,210,2012-10-05 05:56:00
2:56 AM,59.0,52.9,80,30.16,10.0,SSW,4.6,-,N/A,,Clear,200,2012-10-05 06:56:00
3:56 AM,57.9,52.9,83,30.15,10.0,Variable,3.5,-,N/A,,Clear,0,2012-10-05 07:56:00
4:56 AM,57.9,52.9,83,30.14,10.0,Variable,3.5,-,N/A,,Clear,0,2012-10-05 08:56:00
5:56 AM,57.9,52.9,83,30.15,10.0,South,4.6,-,N/A,,Clear,190,2012-10-05 09:56:00
6:56 AM,56.8,52.9,87,30.15,10.0,SSW,5.8,-,N/A,,Partly Cloudy,200,2012-10-05 10:56:00
7:56 AM,59.0,54.0,83,30.16,10.0,SSW,4.6,-,N/A,,Partly Cloudy,210,2012-10-05 11:56:00
8:56 AM,59.9,54.9,83,30.15,10.0,Variable,5.8,-,N/A,,Partly Cloudy,0,2012-10-05 12:56:00
9:38 AM,62.6,55.4,77,30.11,10.0,SW,5.8,-,N/A,,Scattered Clouds,220,2012-10-05 13:38:00
9:56 AM,64.9,55.9,73,30.14,10.0,Variable,4.6,-,N/A,,Partly Cloudy,0,2012-10-05 13:56:00
10:56 AM,68.9,56.8,65,30.13,10.0,SW,9.2,-,N/A,,Partly Cloudy,220,2012-10-05 14:56:00
11:34 AM,71.6,57.2,60,30.08,10.0,Variable,5.8,-,N/A,,Scattered Clouds,0,2012-10-05 15:34:00
11:56 AM,72.0,57.9,61,30.11,10.0,WSW,9.2,-,N/A,,Partly Cloudy,240,2012-10-05 15:56:00
12:28 PM,73.4,57.2,57,30.07,10.0,WSW,8.1,-,N/A,,Mostly Cloudy,250,2012-10-05 16:28:00
12:56 PM,72.9,57.9,59,30.10,10.0,West,13.8,-,N/A,,Mostly Cloudy,260,2012-10-05 16:56:00
1:56 PM,72.9,57.9,59,30.08,10.0,WSW,10.4,-,N/A,,Scattered Clouds,240,2012-10-05 17:56:00
2:56 PM,72.0,57.9,61,30.06,10.0,West,9.2,-,N/A,,Scattered Clouds,260,2012-10-05 18:56:00
3:56 PM,70.0,56.8,63,30.06,10.0,WNW,5.8,-,N/A,,Mostly Cloudy,290,2012-10-05 19:56:00
4:03 PM,69.8,57.2,64,30.02,10.0,WNW,6.9,-,N/A,,Mostly Cloudy,300,2012-10-05 20:03:00
4:56 PM,70.0,57.9,65,30.04,10.0,WNW,5.8,-,N/A,,Mostly Cloudy,300,2012-10-05 20:56:00
5:56 PM,65.8,57.9,76,30.01,8.0,SE,4.6,-,N/A,,Clear,130,2012-10-05 21:56:00
6:08 PM,66.2,57.2,73,29.97,10.0,Calm,Calm,-,N/A,,Partly Cloudy,0,2012-10-05 22:08:00
6:56 PM,63.9,59.0,84,30.01,10.0,Calm,Calm,-,N/A,,Scattered Clouds,0,2012-10-05 22:56:00
7:56 PM,61.9,57.9,87,29.99,10.0,Calm,Calm,-,N/A,,Scattered Clouds,0,2012-10-05 23:56:00
8:07 PM,60.8,57.2,88,29.94,10.0,Calm,Calm,-,N/A,,Mostly Cloudy,0,2012-10-06 00:07:00
8:16 PM,60.8,57.2,88,29.95,10.0,Calm,Calm,-,N/A,,Scattered Clouds,0,2012-10-06 00:16:00
8:56 PM,61.0,59.0,93,29.98,9.0,NNW,4.6,-,N/A,,Scattered Clouds,340,2012-10-06 00:56:00
9:27 PM,60.8,57.2,88,29.95,7.0,Variable,3.5,-,N/A,,Mostly Cloudy,0,2012-10-06 01:27:00
9:56 PM,59.9,56.8,90,29.98,8.0,NW,5.8,-,N/A,,Overcast,310,2012-10-06 01:56:00
10:21 PM,59.0,57.2,94,29.95,6.0,NNW,10.4,-,N/A,,Overcast,330,2012-10-06 02:21:00
10:56 PM,55.9,52.9,89,29.98,10.0,WNW,5.8,-,N/A,,Overcast,290,2012-10-06 02:56:00
11:56 PM,54.9,52.9,93,29.97,6.0,WNW,8.1,-,0.00,,Mostly Cloudy,300,2012-10-06 03:56:00